sat.trackr.live / text

‹ back to catalog

SITRO-AIS 14

NORAD 61752 · 2024-199T

PAYLOAD ACTIVE UNKNOWN

§ Identity

Operator
Country
CIS
Launch date
2024-11-04
Launch site
VOSTO
Launch vehicle
Mass (kg)
RCS (m²)

External: N2YO · Heavens-Above · Gunter

§ Orbital elements

Epoch: 2026-09-22T20:29:36.259296Z

Period
96.12 min
Inclination
97.3188°
Eccentricity
0.0007456
Mean motion
14.98066308 rev/d
Perigee alt
567.7 km
Apogee alt
578.1 km
Semi-major
6,951.0 km
B*
9.2323e-5
RAAN
99.1938°
Arg perigee
92.4633°
Mean anomaly
267.7445°
Rev number
14,974

§ Raw data

SITRO-AIS 141 61752U 24199T   26265.85389189  .00001039  00000+0  92323-4 0  99932 61752  97.3188  99.1938 0007456  92.4633 267.7445 14.98066308149742

JSON: /api/v1/satellites/61752 · /tle

For live sub-satellite position, see the globe view (requires WebGL).

§ Visibility from observer

Set your observer location to see the next 7 days of passes ≥ 10°. The values pass through the URL so the page stays shareable.

No JS? Fill the form by hand. The geolocation button needs JavaScript.

§ Radio — SatNOGS DB

ModeDescriptionDownlinkUplink
GMSK USP Mode U - GMSK2k4 - USP 401.035 MHz

1 transmitter · refreshed weekly from db.satnogs.org